Location: Antin
(43.3330°N, 0.2804°E)
Time: 07:23:57
(UTC+00:00)

SME Rocket - Pass Details

Date: 11 December 2023
Orbit: 550 x 2645 km, 99.9° (Epoch: 04 March)

Event Time Altitude Azimuth Distance (km) Brightness Sun altitude
Rises 05:45:28 0° 20° (NNE) 5,870 8.1 -16.7°
Reaches altitude 10° 05:49:40 10° 32° (NNE) 5,071 7.9 -15.9°
Maximum altitude 06:01:09 30° 88° (E) 3,962 7.9 -13.9°
Drops below altitude 10° 06:12:48 10° 143° (SE) 5,230 8.7 -11.9°
Sets 06:17:05 0° 153° (SSE) 6,083 8.9 -11.2°
